Location: Newark
(49.3000°N, 9.4667°E)
Time: 05:15:43
(UTC+00:00)

Transit 2A Rocket - Pass Details

Date: 21 May 2019
Orbit: 586 x 917 km, 66.7° (Epoch: 18 June)

Event Time Altitude Azimuth Distance (km) Brightness Sun altitude
Rises 01:27:00 0° 324° (NW) 3,481 8.7 -15.0°
Reaches altitude 10° 01:29:36 10° 327° (NNW) 2,501 8.0 -14.8°
Maximum altitude 01:35:22 68° 50° (NE) 869 5.5 -14.3°
Drops below altitude 10° 01:40:36 10° 134° (SE) 2,272 7.3 -13.8°
Sets 01:42:52 0° 137° (SE) 3,140 8.1 -13.6°
